Current Version              Previous Version:    01  02  03  04  05  06  07  08  09  10  11  12  13  14  15  16  17  18  19  20  21  22  23  24  25  26  27  28  29  30  
   31  32  33  34  35  36  37  38  39  40  41  42  43  44  45  46  47  48  49  50  51  52  53  54  55  56  57  58  59  60  

[Printable]
309
ASUS44 KFWD 012215
RWRTX
NORTH TEXAS HOURLY WEATHER ROUNDUP
NATIONAL WEATHER SERVICE FORT WORTH TX
500 PM CDT FRI AUG 01 2014

NOTE: "FAIR" INDICATES FEW OR NO CLOUDS BELOW 12,000 FEET WITH NO
SIGNIFICANT WEATHER AND/OR OBSTRUCTIONS TO VISIBILITY.

TXZ118-119-012300-
DALLAS/FORT WORTH METROPLEX

CITY           SKY/WX    TMP DP  RH WIND       PRES   REMARKS
DFW AIRPORT    PTSUNNY   80  65  59 NE8       30.03F
DALLAS LOVE    PTSUNNY   81  66  60 NE8       30.03F
FTW MEACHAM    PTSUNNY   84  65  52 NE10G16   30.02F
DAL-EXECUTIVE  CLOUDY    79  65  62 NE8       30.03S
FTW-ALLIANCE   PTSUNNY   83  64  52 NE8G16    30.02F
FTW-NAS-JRB    PTSUNNY   86  62  44 VRB7      30.06F
FTW-SPINKS     PTSUNNY   82  64  54 NE7       30.04F
ARLINGTON      CLOUDY    80  65  59 NE12      30.02F
GRAND PRAIRIE  PTSUNNY   79  64  61 N9        30.05S
ADDISON        PTSUNNY   79  64  61 E8        30.04F
MESQUITE       CLOUDY    75  66  73 NW9       30.03F
LANCASTER      CLOUDY    78  64  62 NE8       30.03F
$$

TXZ091>094-102>105-117-120-121-131>134-012300-
NORTH CENTRAL TEXAS

CITY           SKY/WX    TMP DP  RH WIND       PRES   REMARKS
SHRMAN/DENISON CLOUDY    77  65  65 NE6       30.06F
GAINESVILLE    PTSUNNY   78  65  65 N6        30.07F
BOWIE          PTSUNNY   79  66  62 NE5       30.06S
BRIDGEPORT     PTSUNNY   83  61  47 N7        30.05F
DECATUR        MOSUNNY   80  64  56 NE5       30.05F
DENTON         CLOUDY    80  66  62 NE9       30.03F
MCKINNEY       CLOUDY    77  67  71 NE9       30.03F
GREENVILLE       N/A     73  66  78 N5        30.03F
ROCKWALL       CLOUDY    76  67  74 NE10      30.02F
TERRELL        CLOUDY    78  67  68 NE10      30.03F
WAXAHACHIE     CLOUDY    77  64  63 N9        30.03F
CLEBURNE       PTSUNNY   81  68  65 NE9G16    30.04F
GRANBURY       MOSUNNY   86  63  45 NE7       30.03F
$$

TXZ083>090-098>101-113>116-127>130-139>142-154-155-012300-
WESTERN NORTH TEXAS

CITY           SKY/WX    TMP DP  RH WIND       PRES   REMARKS
WICHITA FALLS  MOSUNNY   81  66  60 E3        30.04F
WF-KICKAPOO    MOSUNNY   83  63  51 NE6       30.06F
VERNON         MOSUNNY   84  62  46 CALM      30.07F
ABILENE        MOSUNNY   89  58  34 N6        30.05F
ABILENE-DYESS  SUNNY     86  56  35 NE3       30.04F
BRECKENRIDGE   MOSUNNY   89  56  32 N8        30.03F HAZE
GRAHAM         MOSUNNY   85  60  43 CALM      30.03F
MINERAL WELLS  PTSUNNY   84  62  47 NE9       30.02F
STEPHENVILLE   CLOUDY    84  61  45 NE10      30.06F
COMANCHE       MOSUNNY   88  55  33 N9        30.04F
BROWNWOOD      SUNNY     86  57  37 NE6       30.03F
COLEMAN        SUNNY     88  53  30 NE5G21    30.04F
BRADY          SUNNY     88  57  35 VRB5      30.03F
$$

TXZ143>147-156>162-174-175-012300-
CENTRAL TEXAS

CITY           SKY/WX    TMP DP  RH WIND       PRES   REMARKS
WACO           CLOUDY    82  65  56 N13       30.00F
WACO-TSTC      CLOUDY    81  66  61 N13       30.00F
WACO-MCGREGOR  CLOUDY    82  64  54 NE10      30.02F
HILLSBORO      CLOUDY    78  65  64 NE9       30.02F
CORSICANA      CLOUDY    81  66  60 N12       30.02F
MEXIA          CLOUDY    77  68  74 NE6       30.00F
HEARNE         CLOUDY    82  68  62 N10       29.99S
CAMERON        CLOUDY    83  67  58 N8        29.98F
TEMPLE         CLOUDY    81  63  54 N12       30.00S
KILLEEN        PTSUNNY   84  64  51 NE10      30.01F
KILLEEN-SKYLRK CLOUDY    82  63  51 N8        30.01F
FORT HOOD      CLOUDY    85  65  51 N6        30.01F
GATESVILLE     MOSUNNY   82  64  54 N8        30.03F
HAMILTON       PTSUNNY   85  61  44 NE13G18   30.04F
LAMPASAS       CLOUDY    83  66  56 NE10      30.02S
$$

TXZ095>097-106>112-122>126-135>138-148>153-164>167-012300-
EAST TEXAS

CITY           SKY/WX    TMP DP  RH WIND       PRES   REMARKS
PARIS          CLOUDY    73  64  73 NE7       30.04F
SULPHUR SPRNGS CLOUDY    76  67  74 N12       30.05S
CLARKSVILLE    PTSUNNY   76  70  81 NE5       30.03S
MOUNT PLEASANT CLOUDY    73  68  83 N6        30.03S
GILMER         CLOUDY    73  70  88 NW6       30.03S
MINEOLA        CLOUDY    73  68  83 N6        30.03F
TYLER          CLOUDY    75  67  76 N6        30.01F
LONGVIEW       CLOUDY    72  67  84 N5        30.00S
MARSHALL       CLOUDY    76  71  85 N6        30.01F
ATHENS         CLOUDY    73  66  78 NE7       30.00F
JACKSONVILLE   CLOUDY    73  68  84 N7        30.03S
HENDERSON      CLOUDY    72  68  89 CALM      30.01F
NACOGDOCHES    CLOUDY    72  70  94 N10       30.00S
LUFKIN         CLOUDY    76  68  76 NW7       29.98F
$$

SUPPLEMENTAL OBSERVATIONS (CENTRAL)

CITY           SKY/WX    TMP DP  RH WIND       PRES   REMARKS
LAKE TEXOMA      N/A     75  64  69 NE5         N/A
CADDO GRASSLND   N/A     77  68  73 NE3         N/A
PAT MAYSE LAKE   N/A     75  68  78 N6          N/A
GREENVILLE       N/A     75  68  78 N8          N/A
CEDAR HILL       N/A     79  66  65 N6          N/A
ATHENS           N/A     73  66  78 N2          N/A
LAKE LIMESTONE   N/A     75  72  88 N7          N/A
MCGREGOR         N/A     82  64  54 N8          N/A
$$

SUPPLEMENTAL OBSERVATIONS (WEST)

CITY           SKY/WX    TMP DP  RH WIND       PRES   REMARKS
MILLERS CREEK    N/A    N/A N/A N/A E8G16       N/A
LBJ GRASSLAND    N/A     84  66  54 VRB6        N/A
GRANBURY         N/A     84  61  45 NE10        N/A
HAMBY            N/A     88  57  35 NE6         N/A
IVIE RESERVOIR   N/A     90  57  33 N8          N/A
COLORADO BEND    N/A     88  59  37 NE8         N/A
$$

SUPPLEMENTAL OBSERVATIONS (EAST)

CITY           SKY/WX    TMP DP  RH WIND       PRES   REMARKS
CLARKSVILLE      N/A     75  70  83 N6          N/A
TEXARKANA        N/A     73  66  78 NE6         N/A
LINDEN           N/A     73  68  83 CALM        N/A
CADDO LAKE       N/A     72  66  83 E2G10       N/A
GILMER           N/A     73  66  78 VRB5        N/A
HENDERSON        N/A     72  66  83 CALM        N/A
LUFKIN           N/A     73  72  94 MISG        N/A
S SABINE NF      N/A     75  70  83 NW3         N/A
$$

SUPPLEMENTAL OBSERVATIONS ARE A COLLECTION OF AUTOMATED INSTRUMENTS
THAT ARE MAINTAINED BY A VARIETY OF FEDERAL AND STATE AGENCIES.
CERTAIN ELEMENTS...SUCH AS HUMIDITY VALUES AND SUSTAINED WIND
SPEEDS...MAY BE APPROXIMATED.